Location: Newark
(35.5300°N, 14.3000°E)
Time: 08:42:09
(UTC+00:00)

N. Korean satellite - Visible Passes

Search period start: 20 October 2019 00:00
Search period end: 30 October 2019 00:00
Orbit: 455 x 508 km, 97.2° (Epoch: 19 October)

Date Brightness Start Highest point End Pass type
(mag) Time Alt. Az. Time Alt. Az. Time Alt. Az.
20 Oct 9.6 16:57:45 10° SSW 17:00:23 21° W 17:03:03 10° NW visible
21 Oct 8.7 04:26:06 10° NNE 04:29:25 32° E 04:32:44 10° SSE visible
22 Oct 10.1 04:01:46 10° NE 04:04:00 15° E 04:06:15 10° SE visible
23 Oct 10.3 17:16:33 10° WSW 17:17:57 12° W 17:19:22 10° WNW visible
24 Oct 7.4 04:43:17 10° NNE 04:46:55 59° E 04:50:33 10° S visible
24 Oct 9.1 16:49:34 10° SSW 16:52:30 26° W 16:55:28 10° NW visible
25 Oct 9.2 04:18:26 10° NE 04:21:33 26° E 04:24:41 10° SSE visible
26 Oct 10.3 03:54:31 10° ENE 03:56:07 12° E 03:57:44 10° ESE visible
27 Oct 10.0 17:07:53 10° SW 17:10:01 15° W 17:12:09 10° NW visible
28 Oct 7.9 04:35:29 10° NNE 04:39:03 45° E 04:42:37 10° S visible
28 Oct 8.5 16:41:25 10° SSW 16:44:34 34° W 16:47:46 10° NNW visible
29 Oct 9.6 04:10:48 10° NE 04:13:40 21° E 04:16:31 10° SE visible
